| time (UTC) | temp F | wind direction | speed knots | gust knots | rain 1hr in | rain 24hr in | rain mn in | humidity % | barometer mb |
| 20260506113310 | 59 | 338 | 1.7 | 4.3 | 0.00 | 0.00 | 0.00 | 67 | 1004.1 |
| 20260506112310 | 59 | 315 | 1.7 | 5.2 | 0.00 | 0.00 | 0.00 | 66 | 1004.1 |
| 20260506111310 | 59 | 5 | 2.6 | 4.3 | 0.00 | 0.00 | 0.00 | 68 | 1004.6 |
| 20260506110310 | 59 | 340 | 1.7 | 6.1 | 0.00 | 0.00 | 0.00 | 66 | 1004.3 |
| 20260506105310 | 60 | 350 | 2.6 | 4.3 | 0.00 | 0.00 | 0.00 | 66 | 1004.5 |
| 20260506104311 | 60 | 346 | 0.0 | 7.0 | 0.00 | 0.00 | 0.00 | 67 | 1004.6 |
| 20260506103310 | 60 | 355 | 1.7 | 5.2 | 0.00 | 0.00 | 0.00 | 68 | 1004.6 |
| 20260506102310 | 60 | 348 | 0.9 | 4.3 | 0.00 | 0.00 | 0.00 | 69 | 1004.6 |
| 20260506101310 | 59 | 346 | 1.7 | 6.1 | 0.00 | 0.00 | 0.00 | 71 | 1004.7 |
| 20260506100310 | 58 | 347 | 3.5 | 5.2 | 0.00 | 0.00 | 0.00 | 75 | 1004.6 |
| 20260506095310 | 57 | 348 | 2.6 | 4.3 | 0.00 | 0.00 | 0.00 | 75 | 1004.9 |
| 20260506094310 | 56 | 355 | 0.9 | 6.1 | 0.00 | 0.00 | 0.00 | 73 | 1004.7 |
| 20260506093310 | 56 | 346 | 2.6 | 3.5 | 0.00 | 0.00 | 0.00 | 76 | 1004.9 |
| 20260506092310 | 56 | 5 | 2.6 | 2.6 | 0.00 | 0.00 | 0.00 | 76 | 1005.1 |
| 20260506091310 | 56 | 350 | 0.9 | 4.3 | 0.00 | 0.00 | 0.00 | 75 | 1005.1 |
| 20260506090310 | 56 | 17 | 2.6 | 5.2 | 0.00 | 0.00 | 0.00 | 76 | 1005.1 |
| 20260506085310 | 55 | 315 | 2.6 | 2.6 | 0.00 | 0.00 | 0.00 | 78 | 1005.1 |
| 20260506084310 | 55 | 315 | 0.9 | 3.5 | 0.00 | 0.00 | 0.00 | 79 | 1005.1 |
| 20260506083310 | 55 | 360 | 0.0 | 4.3 | 0.00 | 0.00 | 0.00 | 80 | 1005.1 |
| 20260506082310 | 55 | 41 | 1.7 | 3.5 | 0.00 | 0.00 | 0.00 | 79 | 1005.0 |
| 20260506081310 | 55 | 28 | 0.0 | 4.3 | 0.00 | 0.00 | 0.00 | 81 | 1005.0 |
| 20260506080310 | 54 | 20 | 2.6 | 4.3 | 0.00 | 0.00 | 0.00 | 83 | 1004.9 |
| 20260506073311 | 52 | 80 | 0.0 | 0.0 | 0.00 | 0.00 | 0.00 | 88 | 1005.1 |
| 20260506072325 | 52 | 80 | 0.0 | 2.6 | 0.00 | 0.00 | 0.00 | 89 | 1005.1 |
| 20260506071310 | 51 | 81 | 0.9 | 1.7 | 0.00 | 0.00 | 0.00 | 90 | 1005.1 |
| 20260506070310 | 51 | 81 | 0.9 | 4.3 | 0.00 | 0.00 | 0.00 | 90 | 1004.9 |
| 20260506062310 | 50 | 101 | 0.0 | 1.7 | 0.00 | 0.00 | 0.00 | 91 | 1005.4 |
| 20260506061310 | 50 | 101 | 0.9 | 1.7 | 0.00 | 0.00 | 0.00 | 91 | 1005.4 |
| 20260506060310 | 49 | 101 | 0.0 | 2.6 | 0.00 | 0.00 | 0.00 | 91 | 1005.4 |
| 20260506051310 | 47 | 101 | 0.9 | 2.6 | 0.00 | 0.00 | 0.00 | 93 | 1005.6 |
| 20260506050310 | 47 | 101 | 0.0 | 1.7 | 0.00 | 0.00 | 0.00 | 94 | 1005.7 |
| 20260506044310 | 47 | 101 | 0.0 | 1.7 | 0.00 | 0.00 | 0.00 | 94 | 1005.9 |
| 20260506043311 | 46 | 101 | 0.9 | 1.7 | 0.00 | 0.00 | 0.00 | 93 | 1006.0 |
| 20260506042310 | 46 | 101 | 0.0 | 1.7 | 0.00 | 0.00 | 0.00 | 93 | 1006.1 |
| 20260506041310 | 46 | 101 | 0.9 | 2.6 | 0.00 | 0.00 | 0.00 | 93 | 1006.1 |
| 20260506040310 | 46 | 101 | 1.7 | 1.7 | 0.00 | 0.00 | 0.00 | 93 | 1006.3 |
| 20260506035310 | 46 | 101 | 0.9 | 2.6 | 0.00 | 0.00 | 0.00 | 93 | 1006.4 |
| 20260506034310 | 46 | 101 | 0.9 | 1.7 | 0.00 | 0.00 | 0.00 | 93 | 1006.4 |
| 20260506033311 | 47 | 101 | 0.0 | 1.7 | 0.00 | 0.00 | 0.00 | 93 | 1006.5 |
| 20260506032310 | 47 | 101 | 0.9 | 2.6 | 0.00 | 0.00 | 0.00 | 94 | 1006.5 |
| 20260506031310 | 47 | 101 | 1.7 | 2.6 | 0.00 | 0.00 | 0.00 | 94 | 1006.6 |
| 20260506030310 | 46 | 107 | 0.9 | 1.7 | 0.00 | 0.00 | 0.00 | 93 | 1006.8 |
| 20260506025310 | 47 | 107 | 0.0 | 1.7 | 0.00 | 0.00 | 0.00 | 93 | 1007.1 |
| 20260506024310 | 47 | 107 | 0.0 | 0.0 | 0.00 | 0.00 | 0.00 | 94 | 1007.1 |
| 20260506023311 | 46 | 107 | 0.0 | 0.0 | 0.00 | 0.00 | 0.00 | 93 | 1007.1 |
| 20260506022310 | 47 | 107 | 0.0 | 0.0 | 0.00 | 0.00 | 0.00 | 93 | 1007.2 |
| 20260506021310 | 47 | 107 | 0.0 | 2.6 | 0.00 | 0.00 | 0.00 | 93 | 1007.3 |
| 20260506020310 | 46 | 107 | 0.9 | 0.9 | 0.00 | 0.00 | 0.00 | 93 | 1007.3 |
| 20260506015310 | 46 | 107 | 0.0 | 0.0 | 0.00 | 0.00 | 0.00 | 92 | 1007.4 |
| 20260506014310 | 47 | 107 | 0.0 | 0.0 | 0.00 | 0.00 | 0.00 | 93 | 1007.4 |
| 20260506013311 | 47 | 107 | 0.0 | 1.7 | 0.00 | 0.00 | 0.00 | 93 | 1007.6 |
| 20260506012310 | 47 | 107 | 0.0 | 1.7 | 0.00 | 0.00 | 0.00 | 93 | 1007.6 |
| 20260506011310 | 47 | 107 | 1.7 | 1.7 | 0.00 | 0.00 | 0.00 | 93 | 1007.6 |
| 20260506010310 | 47 | 107 | 0.0 | 2.6 | 0.00 | 0.00 | 0.00 | 93 | 1007.6 |
| 20260506005310 | 47 | 107 | 1.7 | 1.7 | 0.00 | 0.00 | 0.00 | 93 | 1007.7 |
| 20260506004310 | 46 | 107 | 0.0 | 2.6 | 0.00 | 0.00 | 0.00 | 93 | 1007.8 |
| 20260506003310 | 46 | 107 | 0.9 | 2.6 | 0.00 | 0.00 | 0.00 | 93 | 1007.8 |
| 20260506002310 | 46 | 107 | 0.9 | 2.6 | 0.00 | 0.00 | 0.00 | 93 | 1007.8 |
| 20260506001310 | 47 | 107 | 0.9 | 2.6 | 0.00 | 0.00 | 0.00 | 93 | 1007.7 |
| 20260506000310 | 47 | 107 | 0.9 | 2.6 | 0.00 | 0.00 | 0.00 | 93 | 1007.9 |
| 20260505235310 | 47 | 107 | 0.9 | 2.6 | 0.00 | 0.00 | 0.00 | 93 | 1008.0 |
| 20260505234310 | 47 | 107 | 0.9 | 2.6 | 0.00 | 0.00 | 0.00 | 93 | 1008.1 |
| 20260505233310 | 47 | 107 | 0.9 | 1.7 | 0.00 | 0.00 | 0.00 | 93 | 1008.1 |
| 20260505232310 | 47 | 107 | 0.9 | 1.7 | 0.00 | 0.00 | 0.00 | 93 | 1008.3 |
| 20260505231310 | 48 | 107 | 0.9 | 2.6 | 0.00 | 0.00 | 0.00 | 93 | 1008.2 |
| 20260505230310 | 48 | 107 | 1.7 | 2.6 | 0.00 | 0.00 | 0.00 | 93 | 1008.3 |
| 20260505225310 | 48 | 107 | 0.9 | 1.7 | 0.00 | 0.00 | 0.00 | 93 | 1008.2 |
| 20260505224311 | 48 | 107 | 0.0 | 1.7 | 0.00 | 0.00 | 0.00 | 92 | 1008.4 |
| 20260505223310 | 49 | 107 | 0.0 | 0.9 | 0.00 | 0.00 | 0.00 | 91 | 1008.2 |
| 20260505222310 | 49 | 107 | 0.0 | 0.9 | 0.00 | 0.00 | 0.00 | 91 | 1008.3 |
| 20260505221310 | 50 | 107 | 0.0 | 1.7 | 0.00 | 0.00 | 0.00 | 91 | 1008.4 |
| 20260505220310 | 50 | 107 | 0.0 | 1.7 | 0.00 | 0.00 | 0.00 | 91 | 1008.3 |
| 20260505215310 | 50 | 107 | 0.9 | 1.7 | 0.00 | 0.20 | 0.20 | 91 | 1008.4 |
| 20260505214310 | 50 | 107 | 0.0 | 1.7 | 0.00 | 0.20 | 0.20 | 91 | 1008.2 |
| 20260505213310 | 50 | 107 | 0.9 | 1.7 | 0.00 | 0.20 | 0.20 | 91 | 1008.3 |
| 20260505212310 | 50 | 107 | 0.0 | 0.9 | 0.00 | 0.20 | 0.20 | 91 | 1008.5 |
| 20260505211310 | 50 | 107 | 0.0 | 1.7 | 0.01 | 0.20 | 0.20 | 91 | 1008.5 |
| 20260505210310 | 50 | 107 | 0.9 | 2.6 | 0.02 | 0.20 | 0.20 | 91 | 1008.4 |
| 20260505205310 | 50 | 107 | 0.9 | 3.5 | 0.03 | 0.20 | 0.20 | 91 | 1008.5 |
| 20260505204310 | 51 | 67 | 0.9 | 2.6 | 0.03 | 0.20 | 0.20 | 91 | 1008.4 |
| 20260505203310 | 50 | 165 | 0.0 | 1.7 | 0.03 | 0.20 | 0.20 | 90 | 1008.4 |
| 20260505202310 | 50 | 165 | 0.0 | 2.6 | 0.04 | 0.20 | 0.20 | 91 | 1008.3 |
| 20260505201310 | 50 | 165 | 0.9 | 1.7 | 0.06 | 0.20 | 0.20 | 91 | 1008.3 |
| 20260505200310 | 50 | 165 | 0.9 | 2.6 | 0.07 | 0.18 | 0.18 | 91 | 1008.7 |
| 20260505195310 | 50 | 156 | 1.7 | 3.5 | 0.14 | 0.17 | 0.17 | 92 | 1008.8 |
| 20260505194310 | 50 | 142 | 1.7 | 4.3 | 0.17 | 0.17 | 0.17 | 92 | 1008.7 |
| 20260505193310 | 51 | 180 | 0.9 | 6.1 | 0.17 | 0.17 | 0.17 | 92 | 1008.8 |
| 20260505192311 | 51 | 214 | 1.7 | 5.2 | 0.17 | 0.17 | 0.17 | 91 | 1008.6 |
| 20260505191310 | 51 | 225 | 2.6 | 7.8 | 0.13 | 0.13 | 0.13 | 90 | 1008.7 |
| 20260505190310 | 51 | 220 | 3.5 | 8.7 | 0.11 | 0.11 | 0.11 | 89 | 1008.4 |
| 20260505185310 | 52 | 223 | 5.2 | 11.3 | 0.03 | 0.03 | 0.03 | 88 | 1008.2 |
| 20260505184310 | 54 | 225 | 7.0 | 11.3 | 0.00 | 0.00 | 0.00 | 88 | 1008.0 |
| 20260505183310 | 54 | 217 | 1.7 | 3.5 | 0.00 | 0.00 | 0.00 | 90 | 1007.2 |
| 20260505182310 | 54 | 240 | 0.9 | 2.6 | 0.00 | 0.00 | 0.00 | 90 | 1007.1 |
| 20260505181310 | 54 | 240 | 1.7 | 2.6 | 0.00 | 0.00 | 0.00 | 89 | 1006.9 |
| 20260505180310 | 54 | 240 | 1.7 | 2.6 | 0.00 | 0.00 | 0.00 | 89 | 1006.9 |
| 20260505175310 | 54 | 240 | 0.9 | 1.7 | 0.00 | 0.00 | 0.00 | 88 | 1006.6 |
| 20260505174310 | 55 | 240 | 0.9 | 3.5 | 0.00 | 0.00 | 0.00 | 86 | 1006.5 |
| 20260505173310 | 56 | 239 | 1.7 | 7.0 | 0.00 | 0.00 | 0.00 | 84 | 1006.5 |
| 20260505172310 | 57 | 240 | 3.5 | 5.2 | 0.00 | 0.00 | 0.00 | 83 | 1006.4 |
| 20260505171310 | 58 | 258 | 1.7 | 4.3 | 0.00 | 0.00 | 0.00 | 82 | 1006.2 |
| 20260505170310 | 59 | 245 | 2.6 | 5.2 | 0.00 | 0.00 | 0.00 | 81 | 1006.0 |
| 20260505165309 | 60 | 238 | 3.5 | 6.1 | 0.00 | 0.00 | 0.00 | 80 | 1005.9 |
| 20260505164310 | 59 | 232 | 3.5 | 6.1 | 0.00 | 0.00 | 0.00 | 82 | 1005.8 |
| 20260505163310 | 59 | 238 | 1.7 | 3.5 | 0.00 | 0.00 | 0.00 | 81 | 1005.6 |
| 20260505162309 | 59 | 265 | 1.7 | 2.6 | 0.00 | 0.00 | 0.00 | 80 | 1005.6 |
| 20260505161310 | 60 | 265 | 1.7 | 3.5 | 0.00 | 0.00 | 0.00 | 79 | 1005.5 |
| 20260505160310 | 60 | 198 | 1.7 | 2.6 | 0.00 | 0.00 | 0.00 | 76 | 1005.5 |
| 20260505153309 | 60 | 304 | 4.3 | 8.7 | 0.00 | 0.00 | 0.00 | 76 | 1005.8 |
| 20260505152310 | 60 | 304 | 3.5 | 6.1 | 0.00 | 0.00 | 0.00 | 74 | 1005.7 |
| 20260505151310 | 61 | 243 | 2.6 | 6.1 | 0.00 | 0.00 | 0.00 | 70 | 1005.8 |
| 20260505150310 | 63 | 229 | 1.7 | 7.0 | 0.00 | 0.00 | 0.00 | 64 | 1005.9 |
| 20260505140310 | 63 | 355 | 1.7 | 6.1 | 0.00 | 0.00 | 0.00 | 56 | 1005.8 |
| 20260505130310 | 62 | 148 | 1.7 | 2.6 | 0.00 | 0.00 | 0.00 | 71 | 1006.1 |
| 20260505124310 | 61 | 198 | 1.7 | 3.5 | 0.00 | 0.00 | 0.00 | 72 | 1006.3 |
| 20260505123310 | 60 | 244 | 2.6 | 3.5 | 0.00 | 0.00 | 0.00 | 76 | 1006.4 |
| 20260505122310 | 59 | 248 | 1.7 | 2.6 | 0.00 | 0.00 | 0.00 | 73 | 1006.3 |
| 20260505121310 | 60 | 248 | 1.7 | 4.3 | 0.00 | 0.00 | 0.00 | 74 | 1006.2 |
| 20260505120309 | 59 | 240 | 1.7 | 3.5 | 0.00 | 0.00 | 0.00 | 76 | 1006.1 |
| 20260505115309 | 59 | 286 | 1.7 | 3.5 | 0.00 | 0.00 | 0.00 | 76 | 1006.3 |
| 20260505114310 | 58 | 286 | 0.9 | 3.5 | 0.00 | 0.00 | 0.00 | 75 | 1006.4 |